Location: ASU Dark Sky Observatory
(36.2504°N, 81.4125°W)
Time: 22:33:47
(UTC-04:00)

ETS-7 - Visible Passes

Search period start: 30 August 2015 00:00
Search period end: 09 September 2015 00:00
Orbit: 316 x 321 km, 34.9° (Epoch: 30 August)

Date Brightness Start Highest point End Pass type
(mag) Time Alt. Az. Time Alt. Az. Time Alt. Az.
30 Aug 2.7 21:21:30 10° WSW 21:23:32 35° SSW 21:23:32 35° SSW visible
31 Aug 3.3 21:35:19 10° WSW 21:36:54 30° WSW 21:36:54 30° WSW visible
01 Sep 4.3 21:49:06 10° W 21:50:02 19° W 21:50:02 19° W visible
02 Sep 1.9 20:27:07 10° WSW 20:29:48 57° S 20:32:10 13° E visible
02 Sep 5.1 22:02:46 10° W 22:02:58 11° W 22:02:58 11° W visible
03 Sep 1.7 20:40:37 10° W 20:43:20 67° S 20:44:56 21° E visible
04 Sep 1.8 20:54:02 10° W 20:56:43 59° S 20:57:32 37° SE visible
05 Sep 2.3 21:07:21 10° W 21:09:57 41° SSW 21:10:01 40° S visible
06 Sep 3.7 21:20:41 10° WSW 21:22:22 22° SW 21:22:22 22° SW visible
07 Sep 4.8 21:34:24 10° WSW 21:34:39 11° SW 21:34:39 11° SW visible
08 Sep 3.3 20:10:52 10° W 20:13:13 26° SSW 20:15:34 10° SE visible
